| time (UTC) | temp F | wind direction | speed knots | gust knots | rain 1hr in | rain 24hr in | rain mn in | humidity % | barometer mb |
| 20260510172316 | 56 | 328 | 2.6 | 2.6 | 0.00 | 0.00 | 0.00 | 61 | 1010.7 |
| 20260510171812 | 57 | 343 | 1.7 | 1.7 | 0.00 | 0.00 | 0.00 | 59 | 1010.4 |
| 20260510171310 | 57 | 56 | 1.7 | 1.7 | 0.00 | 0.00 | 0.00 | 60 | 1010.3 |
| 20260510170807 | 56 | 351 | 0.9 | 1.7 | 0.00 | 0.00 | 0.00 | 60 | 1010.3 |
| 20260510170303 | 57 | 37 | 1.7 | 1.7 | 0.00 | 0.00 | 0.00 | 56 | 1010.3 |
| 20260510165758 | 56 | 333 | 1.7 | 2.6 | 0.00 | 0.00 | 0.00 | 55 | 1010.3 |
| 20260510165254 | 55 | 319 | 1.7 | 2.6 | 0.00 | 0.00 | 0.00 | 65 | 1010.3 |
| 20260510164752 | 54 | 41 | 0.9 | 0.9 | 0.00 | 0.00 | 0.00 | 63 | 1010.7 |
| 20260510164249 | 54 | 11 | 0.0 | 0.9 | 0.00 | 0.00 | 0.00 | 64 | 1010.5 |
| 20260510163749 | 54 | 53 | 0.9 | 0.9 | 0.00 | 0.00 | 0.00 | 65 | 1010.4 |
| 20260510163245 | 54 | 324 | 1.7 | 1.7 | 0.00 | 0.00 | 0.00 | 67 | 1010.4 |
| 20260510162740 | 55 | 348 | 0.9 | 0.9 | 0.00 | 0.00 | 0.00 | 66 | 1010.4 |
| 20260510162237 | 54 | 347 | 1.7 | 1.7 | 0.00 | 0.00 | 0.00 | 69 | 1010.4 |
| 20260510161733 | 55 | 12 | 0.9 | 1.7 | 0.00 | 0.00 | 0.00 | 68 | 1010.4 |
| 20260510161229 | 55 | 323 | 2.6 | 2.6 | 0.00 | 0.00 | 0.00 | 70 | 1010.5 |
| 20260510160726 | 55 | 297 | 0.9 | 0.9 | 0.00 | 0.00 | 0.00 | 71 | 1010.5 |
| 20260510160226 | 53 | 30 | 0.9 | 0.9 | 0.00 | 0.00 | 0.00 | 77 | 1010.5 |
| 20260510155723 | 53 | 345 | 1.7 | 1.7 | 0.00 | 0.00 | 0.00 | 74 | 1010.5 |
| 20260510155219 | 53 | 3 | 0.9 | 1.7 | 0.00 | 0.00 | 0.00 | 75 | 1010.7 |
| 20260510154715 | 53 | 297 | 2.6 | 2.6 | 0.00 | 0.00 | 0.00 | 76 | 1010.8 |
| 20260510154211 | 53 | 310 | 0.9 | 0.9 | 0.00 | 0.00 | 0.00 | 76 | 1010.4 |
| 20260510153706 | 52 | 317 | 2.6 | 2.6 | 0.00 | 0.00 | 0.00 | 76 | 1010.8 |
| 20260510153202 | 53 | 325 | 2.6 | 2.6 | 0.00 | 0.00 | 0.00 | 78 | 1010.5 |
| 20260510152659 | 52 | 328 | 2.6 | 4.3 | 0.00 | 0.00 | 0.00 | 78 | 1010.4 |
| 20260510152155 | 51 | 315 | 3.5 | 4.3 | 0.00 | 0.00 | 0.00 | 80 | 1010.5 |
| 20260510151652 | 51 | 39 | 1.7 | 1.7 | 0.00 | 0.00 | 0.00 | 86 | 1010.3 |
| 20260510151150 | 51 | 7 | 1.7 | 1.7 | 0.00 | 0.00 | 0.00 | 89 | 1010.3 |
| 20260510150646 | 50 | 309 | 1.7 | 1.7 | 0.00 | 0.00 | 0.00 | 90 | 1010.0 |
| 20260510150141 | 50 | 287 | 1.7 | 2.6 | 0.00 | 0.00 | 0.00 | 91 | 1010.0 |
| 20260510145638 | 49 | 302 | 1.7 | 1.7 | 0.00 | 0.00 | 0.00 | 91 | 1010.0 |
| 20260510145134 | 49 | 309 | 1.7 | 2.6 | 0.00 | 0.00 | 0.00 | 90 | 1009.8 |
| 20260510144630 | 49 | 294 | 2.6 | 2.6 | 0.00 | 0.00 | 0.00 | 90 | 1009.7 |
| 20260510144127 | 49 | 313 | 2.6 | 2.6 | 0.00 | 0.00 | 0.00 | 91 | 1009.5 |
| 20260510143622 | 49 | 308 | 2.6 | 4.3 | 0.00 | 0.00 | 0.00 | 92 | 1009.6 |
| 20260510143119 | 49 | 312 | 4.3 | 4.3 | 0.00 | 0.00 | 0.00 | 91 | 1009.5 |
| 20260510142616 | 50 | 334 | 1.7 | 1.7 | 0.00 | 0.00 | 0.00 | 92 | 1009.5 |
| 20260510142112 | 50 | 305 | 4.3 | 5.2 | 0.00 | 0.00 | 0.00 | 91 | 1009.3 |
| 20260510141609 | 53 | 322 | 6.1 | 7.8 | 0.00 | 0.00 | 0.00 | 90 | 1009.2 |
| 20260510141108 | 54 | 14 | 0.0 | 0.0 | 0.00 | 0.00 | 0.00 | 91 | 1008.9 |
| 20260510140603 | 55 | 348 | 0.0 | 0.0 | 0.00 | 0.00 | 0.00 | 92 | 1008.8 |
| 20260510135558 | 55 | 32 | 0.0 | 0.0 | 0.00 | 0.00 | 0.00 | 92 | 1008.8 |
| 20260510135055 | 55 | 85 | 0.0 | 0.0 | 0.00 | 0.00 | 0.00 | 91 | 1008.7 |
| 20260510134552 | 55 | 54 | 0.0 | 0.0 | 0.00 | 0.00 | 0.00 | 92 | 1008.6 |
| 20260510134049 | 54 | 38 | 0.0 | 0.0 | 0.00 | 0.00 | 0.00 | 92 | 1008.6 |
| 20260510133544 | 53 | 17 | 0.0 | 0.0 | 0.00 | 0.00 | 0.00 | 95 | 1008.4 |
| 20260510133041 | 53 | 33 | 0.0 | 0.0 | 0.00 | 0.00 | 0.00 | 97 | 1008.6 |
| 20260510132537 | 53 | 66 | 0.0 | 0.0 | 0.00 | 0.00 | 0.00 | 99 | 1008.4 |
| 20260510132034 | 53 | 44 | 0.0 | 0.0 | 0.00 | 0.00 | 0.00 | 99 | 1008.6 |
| 20260510131532 | 53 | 24 | 0.0 | 0.0 | 0.00 | 0.00 | 0.00 | 99 | 1008.7 |
| 20260510131029 | 53 | 63 | 0.0 | 0.0 | 0.00 | 0.00 | 0.00 | 99 | 1008.6 |
| 20260510130525 | 53 | 67 | 0.0 | 0.0 | 0.00 | 0.00 | 0.00 | 99 | 1008.4 |
| 20260510130023 | 53 | 56 | 0.0 | 0.0 | 0.00 | 0.00 | 0.00 | 99 | 1008.4 |
| 20260510125519 | 53 | 62 | 0.0 | 0.0 | 0.00 | 0.00 | 0.00 | 99 | 1008.3 |
| 20260510125016 | 53 | 57 | 0.0 | 0.0 | 0.00 | 0.00 | 0.00 | 99 | 1008.2 |
| 20260510124512 | 52 | 64 | 0.0 | 0.0 | 0.00 | 0.00 | 0.00 | 99 | 1008.2 |
| 20260510124009 | 52 | 61 | 0.0 | 0.0 | 0.00 | 0.00 | 0.00 | 99 | 1008.1 |
| 20260510123504 | 51 | 84 | 0.0 | 0.0 | 0.00 | 0.00 | 0.00 | 99 | 1008.1 |
| 20260510123001 | 51 | 89 | 0.0 | 0.0 | 0.00 | 0.00 | 0.00 | 99 | 1008.1 |
| 20260510122456 | 51 | 87 | 0.0 | 0.0 | 0.00 | 0.00 | 0.00 | 99 | 1008.1 |
| 20260510121953 | 51 | 85 | 0.0 | 0.0 | 0.00 | 0.00 | 0.00 | 99 | 1008.1 |
| 20260510121450 | 51 | 87 | 0.0 | 0.0 | 0.00 | 0.00 | 0.00 | 99 | 1008.1 |
| 20260510120947 | 51 | 80 | 0.0 | 0.0 | 0.00 | 0.00 | 0.00 | 99 | 1008.2 |
| 20260510120445 | 51 | 82 | 0.0 | 0.0 | 0.00 | 0.00 | 0.00 | 99 | 1008.2 |
| 20260510115940 | 50 | 78 | 0.0 | 0.0 | 0.00 | 0.00 | 0.00 | 99 | 1008.1 |
| 20260510115438 | 49 | 78 | 0.0 | 0.0 | 0.00 | 0.00 | 0.00 | 99 | 1008.1 |
| 20260510114933 | 49 | 71 | 0.0 | 0.0 | 0.00 | 0.00 | 0.00 | 99 | 1008.0 |
| 20260510114430 | 49 | 62 | 0.0 | 0.0 | 0.00 | 0.00 | 0.00 | 99 | 1008.1 |
| 20260510113926 | 49 | 62 | 0.0 | 0.0 | 0.00 | 0.00 | 0.00 | 99 | 1007.8 |
| 20260510113421 | 49 | 80 | 0.0 | 0.0 | 0.00 | 0.00 | 0.00 | 99 | 1007.9 |
| 20260510112919 | 49 | 78 | 0.0 | 0.0 | 0.00 | 0.00 | 0.00 | 99 | 1007.8 |
| 20260510112417 | 49 | 79 | 0.0 | 0.0 | 0.00 | 0.00 | 0.00 | 99 | 1007.7 |
| 20260510111912 | 48 | 64 | 0.0 | 0.0 | 0.00 | 0.00 | 0.00 | 99 | 1007.6 |
| 20260510111409 | 48 | 32 | 0.0 | 0.0 | 0.00 | 0.00 | 0.00 | 99 | 1007.5 |
| 20260510110904 | 48 | 67 | 0.0 | 0.0 | 0.00 | 0.00 | 0.00 | 99 | 1007.6 |
| 20260510110401 | 48 | 67 | 0.0 | 0.0 | 0.00 | 0.00 | 0.00 | 99 | 1007.6 |
| 20260510105857 | 48 | 70 | 0.0 | 0.0 | 0.00 | 0.00 | 0.00 | 99 | 1007.7 |
| 20260510105357 | 48 | 66 | 0.0 | 0.0 | 0.00 | 0.00 | 0.00 | 99 | 1007.7 |
| 20260510104853 | 48 | 72 | 0.0 | 0.0 | 0.00 | 0.00 | 0.00 | 99 | 1007.5 |
| 20260510104350 | 48 | 72 | 0.0 | 0.0 | 0.00 | 0.00 | 0.00 | 99 | 1007.4 |
| 20260510103846 | 48 | 72 | 0.0 | 0.0 | 0.00 | 0.00 | 0.00 | 99 | 1007.4 |
| 20260510103344 | 48 | 72 | 0.0 | 0.0 | 0.00 | 0.00 | 0.00 | 99 | 1007.2 |
| 20260510102839 | 48 | 72 | 0.0 | 0.0 | 0.00 | 0.00 | 0.00 | 99 | 1007.4 |
| 20260510102335 | 48 | 74 | 0.0 | 0.0 | 0.00 | 0.00 | 0.00 | 99 | 1007.3 |
| 20260510101832 | 48 | 75 | 0.0 | 0.0 | 0.00 | 0.00 | 0.00 | 99 | 1007.1 |
| 20260510101331 | 47 | 75 | 0.0 | 0.0 | 0.00 | 0.00 | 0.00 | 99 | 1006.9 |
| 20260510100826 | 47 | 63 | 0.0 | 0.0 | 0.00 | 0.00 | 0.00 | 99 | 1006.7 |
| 20260510100324 | 47 | 71 | 0.0 | 0.0 | 0.00 | 0.00 | 0.00 | 99 | 1006.7 |
| 20260510095820 | 47 | 75 | 0.0 | 0.0 | 0.00 | 0.00 | 0.00 | 99 | 1006.7 |
| 20260510095315 | 47 | 76 | 0.0 | 0.0 | 0.00 | 0.00 | 0.00 | 99 | 1006.7 |
| 20260510094809 | 47 | 62 | 0.0 | 0.0 | 0.00 | 0.00 | 0.00 | 99 | 1006.6 |
| 20260510094304 | 46 | 67 | 0.0 | 0.0 | 0.00 | 0.00 | 0.00 | 99 | 1006.4 |
| 20260510093800 | 46 | 64 | 0.0 | 0.0 | 0.00 | 0.00 | 0.00 | 99 | 1006.2 |
| 20260510093257 | 46 | 68 | 0.0 | 0.0 | 0.00 | 0.00 | 0.00 | 99 | 1006.3 |
| 20260510092753 | 46 | 64 | 0.0 | 0.0 | 0.00 | 0.00 | 0.00 | 99 | 1006.1 |
| 20260510092249 | 46 | 67 | 0.0 | 0.0 | 0.00 | 0.00 | 0.00 | 99 | 1006.2 |
| 20260510091745 | 46 | 69 | 0.0 | 0.0 | 0.00 | 0.00 | 0.00 | 99 | 1006.0 |
| 20260510091243 | 46 | 61 | 0.0 | 0.0 | 0.00 | 0.00 | 0.00 | 99 | 1005.9 |
| 20260510090739 | 46 | 61 | 0.0 | 0.0 | 0.00 | 0.00 | 0.00 | 99 | 1006.0 |
| 20260510090236 | 46 | 55 | 0.0 | 0.0 | 0.00 | 0.00 | 0.00 | 99 | 1006.3 |
| 20260510085731 | 46 | 60 | 0.0 | 0.0 | 0.00 | 0.00 | 0.00 | 99 | 1005.9 |
| 20260510085225 | 46 | 60 | 0.0 | 0.0 | 0.00 | 0.00 | 0.00 | 99 | 1005.8 |
| 20260510084722 | 46 | 63 | 0.0 | 0.0 | 0.00 | 0.00 | 0.00 | 99 | 1005.9 |
| 20260510084219 | 47 | 68 | 0.0 | 0.0 | 0.00 | 0.00 | 0.00 | 99 | 1005.9 |
| 20260510083715 | 47 | 67 | 0.0 | 0.0 | 0.00 | 0.00 | 0.00 | 99 | 1006.0 |
| 20260510083213 | 47 | 63 | 0.0 | 0.0 | 0.00 | 0.00 | 0.00 | 99 | 1006.0 |
| 20260510082708 | 47 | 69 | 0.0 | 0.0 | 0.00 | 0.00 | 0.00 | 99 | 1006.0 |
| 20260510082205 | 46 | 67 | 0.0 | 0.0 | 0.00 | 0.00 | 0.00 | 99 | 1006.2 |
| 20260510081704 | 46 | 57 | 0.0 | 0.0 | 0.00 | 0.00 | 0.00 | 99 | 1006.1 |
| 20260510081201 | 47 | 62 | 0.0 | 0.0 | 0.00 | 0.00 | 0.00 | 99 | 1005.9 |
| 20260510080655 | 47 | 68 | 0.0 | 0.0 | 0.00 | 0.00 | 0.00 | 99 | 1005.9 |
| 20260510080152 | 47 | 65 | 0.0 | 0.0 | 0.00 | 0.00 | 0.00 | 99 | 1006.0 |
| 20260510075649 | 48 | 64 | 0.0 | 0.0 | 0.00 | 0.00 | 0.00 | 99 | 1006.0 |
| 20260510075146 | 48 | 62 | 0.0 | 0.0 | 0.00 | 0.00 | 0.00 | 99 | 1005.9 |
| 20260510074643 | 48 | 65 | 0.0 | 0.0 | 0.00 | 0.00 | 0.00 | 99 | 1006.1 |
| 20260510074139 | 48 | 65 | 0.0 | 0.0 | 0.00 | 0.00 | 0.00 | 99 | 1006.3 |
| 20260510073636 | 48 | 51 | 0.0 | 0.0 | 0.00 | 0.00 | 0.00 | 99 | 1006.2 |
| 20260510073132 | 48 | 64 | 0.0 | 0.0 | 0.00 | 0.00 | 0.00 | 99 | 1006.3 |
| 20260510072628 | 48 | 56 | 0.0 | 0.0 | 0.00 | 0.00 | 0.00 | 99 | 1006.3 |
| 20260510072125 | 48 | 61 | 0.0 | 0.0 | 0.00 | 0.00 | 0.00 | 99 | 1006.2 |
| 20260510071620 | 48 | 75 | 0.0 | 0.0 | 0.00 | 0.00 | 0.00 | 99 | 1005.5 |
| 20260510071118 | 48 | 74 | 0.0 | 0.0 | 0.00 | 0.00 | 0.00 | 99 | 1006.0 |
| 20260510070615 | 48 | 74 | 0.0 | 0.0 | 0.00 | 0.00 | 0.00 | 99 | 1006.1 |
| 20260510070112 | 48 | 74 | 0.0 | 0.0 | 0.00 | 0.00 | 0.00 | 99 | 1006.3 |
| 20260510065603 | 48 | 75 | 0.0 | 0.0 | 0.00 | 0.00 | 0.00 | 99 | 1006.2 |
| 20260510065059 | 49 | 78 | 0.0 | 0.0 | 0.00 | 0.00 | 0.00 | 99 | 1006.3 |
| 20260510064555 | 49 | 81 | 0.0 | 0.0 | 0.00 | 0.00 | 0.00 | 99 | 1006.5 |
| 20260510064052 | 49 | 65 | 0.0 | 0.0 | 0.00 | 0.00 | 0.00 | 99 | 1006.7 |
| 20260510063549 | 49 | 64 | 0.0 | 0.0 | 0.00 | 0.00 | 0.00 | 99 | 1007.0 |
| 20260510063046 | 49 | 72 | 0.0 | 0.0 | 0.00 | 0.00 | 0.00 | 99 | 1006.9 |
| 20260510062542 | 49 | 63 | 0.0 | 0.0 | 0.00 | 0.00 | 0.00 | 99 | 1007.2 |
| 20260510062037 | 49 | 62 | 0.0 | 0.0 | 0.00 | 0.00 | 0.00 | 99 | 1006.9 |
| 20260510061534 | 49 | 62 | 0.0 | 0.0 | 0.00 | 0.00 | 0.00 | 99 | 1006.9 |
| 20260510061031 | 49 | 62 | 0.0 | 0.0 | 0.00 | 0.00 | 0.00 | 99 | 1006.9 |
| 20260510060527 | 49 | 64 | 0.0 | 0.0 | 0.00 | 0.00 | 0.00 | 99 | 1006.9 |
| 20260510060023 | 49 | 50 | 0.0 | 0.0 | 0.00 | 0.00 | 0.00 | 99 | 1007.1 |
| 20260510055519 | 49 | 54 | 0.0 | 0.0 | 0.00 | 0.00 | 0.00 | 99 | 1006.9 |
| 20260510055018 | 49 | 55 | 0.0 | 0.0 | 0.00 | 0.00 | 0.00 | 99 | 1006.7 |
| 20260510054513 | 49 | 61 | 0.0 | 0.0 | 0.00 | 0.00 | 0.00 | 99 | 1006.5 |
| 20260510054009 | 48 | 57 | 0.0 | 0.0 | 0.00 | 0.00 | 0.00 | 99 | 1006.6 |
| 20260510053503 | 48 | 51 | 0.0 | 0.0 | 0.00 | 0.00 | 0.00 | 99 | 1006.6 |
| 20260510053000 | 48 | 59 | 0.0 | 0.0 | 0.00 | 0.00 | 0.00 | 99 | 1006.5 |
| 20260510052456 | 48 | 50 | 0.0 | 0.0 | 0.00 | 0.00 | 0.00 | 99 | 1006.3 |
| 20260510051953 | 48 | 51 | 0.0 | 0.0 | 0.00 | 0.00 | 0.00 | 99 | 1006.2 |
| 20260510051448 | 48 | 55 | 0.0 | 0.0 | 0.00 | 0.00 | 0.00 | 99 | 1006.2 |
| 20260510050944 | 48 | 68 | 0.0 | 0.0 | 0.00 | 0.00 | 0.00 | 99 | 1006.2 |
| 20260510050442 | 48 | 68 | 0.0 | 0.0 | 0.00 | 0.00 | 0.00 | 99 | 1006.1 |
| 20260510045939 | 48 | 71 | 0.0 | 0.0 | 0.00 | 0.00 | 0.00 | 99 | 1006.3 |
| 20260510045436 | 48 | 64 | 0.0 | 0.0 | 0.00 | 0.00 | 0.00 | 99 | 1006.0 |
| 20260510044933 | 48 | 75 | 0.0 | 0.0 | 0.00 | 0.00 | 0.00 | 99 | 1006.2 |
| 20260510044430 | 49 | 63 | 0.0 | 0.0 | 0.00 | 0.00 | 0.00 | 99 | 1006.3 |
| 20260510043926 | 49 | 57 | 0.0 | 0.0 | 0.00 | 0.00 | 0.00 | 99 | 1006.1 |
| 20260510043422 | 49 | 69 | 0.0 | 0.0 | 0.00 | 0.00 | 0.00 | 99 | 1006.2 |
| 20260510042921 | 49 | 68 | 0.0 | 0.0 | 0.00 | 0.00 | 0.00 | 99 | 1006.2 |
| 20260510042416 | 49 | 64 | 0.0 | 0.0 | 0.00 | 0.00 | 0.00 | 99 | 1006.3 |
| 20260510041912 | 49 | 62 | 0.0 | 0.0 | 0.00 | 0.00 | 0.00 | 99 | 1006.2 |
| 20260510041410 | 49 | 74 | 0.0 | 0.0 | 0.00 | 0.00 | 0.00 | 99 | 1006.4 |
| 20260510040907 | 49 | 78 | 0.0 | 0.0 | 0.00 | 0.00 | 0.00 | 99 | 1006.4 |
| 20260510040404 | 49 | 61 | 0.0 | 0.0 | 0.00 | 0.00 | 0.00 | 99 | 1006.7 |
| 20260510035900 | 49 | 67 | 0.0 | 0.0 | 0.00 | 0.38 | 0.38 | 99 | 1006.4 |
| 20260510035356 | 49 | 58 | 0.0 | 0.0 | 0.00 | 0.38 | 0.38 | 99 | 1006.3 |
| 20260510034851 | 49 | 68 | 0.0 | 0.0 | 0.00 | 0.38 | 0.38 | 99 | 1006.2 |
| 20260510034349 | 49 | 59 | 0.0 | 0.0 | 0.00 | 0.38 | 0.38 | 99 | 1006.2 |
| 20260510033845 | 49 | 64 | 0.0 | 0.0 | 0.00 | 0.38 | 0.38 | 99 | 1006.1 |
| 20260510033342 | 50 | 82 | 0.0 | 0.0 | 0.00 | 0.38 | 0.38 | 99 | 1006.2 |
| 20260510032838 | 50 | 76 | 0.0 | 0.0 | 0.00 | 0.38 | 0.38 | 99 | 1006.1 |
| 20260510032336 | 50 | 78 | 0.0 | 0.0 | 0.00 | 0.38 | 0.38 | 99 | 1006.2 |
| 20260510031831 | 50 | 74 | 0.0 | 0.0 | 0.00 | 0.38 | 0.38 | 99 | 1006.3 |
| 20260510031326 | 50 | 67 | 0.0 | 0.0 | 0.00 | 0.38 | 0.38 | 99 | 1006.0 |
| 20260510030821 | 50 | 34 | 0.0 | 0.0 | 0.00 | 0.38 | 0.38 | 99 | 1006.1 |
| 20260510030318 | 50 | 62 | 0.0 | 0.0 | 0.00 | 0.38 | 0.38 | 99 | 1006.0 |
| 20260510025815 | 50 | 53 | 0.0 | 0.0 | 0.00 | 0.38 | 0.38 | 99 | 1006.0 |
| 20260510025312 | 50 | 72 | 0.0 | 0.0 | 0.00 | 0.38 | 0.38 | 99 | 1005.9 |
| 20260510024809 | 50 | 71 | 0.0 | 0.0 | 0.00 | 0.38 | 0.38 | 99 | 1006.1 |
| 20260510024306 | 49 | 68 | 0.0 | 0.0 | 0.00 | 0.38 | 0.38 | 99 | 1006.3 |
| 20260510023802 | 49 | 59 | 0.0 | 0.0 | 0.00 | 0.38 | 0.38 | 99 | 1006.2 |
| 20260510023259 | 50 | 65 | 0.0 | 0.0 | 0.00 | 0.38 | 0.38 | 99 | 1006.1 |
| 20260510022756 | 49 | 69 | 0.0 | 0.0 | 0.00 | 0.38 | 0.38 | 99 | 1006.0 |
| 20260510022255 | 50 | 68 | 0.0 | 0.0 | 0.00 | 0.38 | 0.38 | 99 | 1006.0 |
| 20260510021754 | 50 | 59 | 0.0 | 0.0 | 0.00 | 0.38 | 0.38 | 99 | 1005.9 |
| 20260510021253 | 50 | 82 | 0.0 | 0.0 | 0.00 | 0.38 | 0.38 | 99 | 1006.2 |
| 20260510020748 | 50 | 64 | 0.0 | 0.0 | 0.00 | 0.38 | 0.38 | 99 | 1006.3 |
| 20260510020242 | 50 | 84 | 0.0 | 0.0 | 0.00 | 0.38 | 0.38 | 99 | 1005.9 |
| 20260510015739 | 50 | 74 | 0.0 | 0.0 | 0.00 | 0.38 | 0.38 | 99 | 1006.2 |
| 20260510015235 | 50 | 75 | 0.0 | 0.0 | 0.00 | 0.38 | 0.38 | 99 | 1006.3 |
| 20260510014730 | 50 | 69 | 0.0 | 0.0 | 0.00 | 0.38 | 0.38 | 99 | 1006.2 |
| 20260510014228 | 50 | 67 | 0.0 | 0.0 | 0.00 | 0.38 | 0.38 | 99 | 1006.0 |
| 20260510013724 | 50 | 67 | 0.0 | 0.0 | 0.00 | 0.38 | 0.38 | 99 | 1006.1 |
| 20260510013219 | 50 | 69 | 0.0 | 0.0 | 0.00 | 0.38 | 0.38 | 99 | 1006.3 |
| 20260510012719 | 50 | 73 | 0.0 | 0.0 | 0.00 | 0.38 | 0.38 | 99 | 1006.1 |
| 20260510012214 | 50 | 64 | 0.0 | 0.0 | 0.00 | 0.38 | 0.38 | 99 | 1006.1 |
| 20260510011709 | 50 | 65 | 0.0 | 0.0 | 0.00 | 0.38 | 0.38 | 99 | 1005.8 |
| 20260510011205 | 50 | 65 | 0.0 | 0.0 | 0.00 | 0.38 | 0.38 | 99 | 1006.0 |
| 20260510010702 | 51 | 67 | 0.0 | 0.0 | 0.00 | 0.38 | 0.38 | 99 | 1005.9 |
| 20260510010158 | 51 | 60 | 0.0 | 0.0 | 0.00 | 0.38 | 0.38 | 99 | 1006.2 |
| 20260510005655 | 51 | 79 | 0.0 | 0.0 | 0.00 | 0.38 | 0.38 | 99 | 1006.4 |
| 20260510005151 | 51 | 64 | 0.0 | 0.0 | 0.00 | 0.38 | 0.38 | 99 | 1006.0 |
| 20260510004650 | 51 | 68 | 0.0 | 0.0 | 0.00 | 0.38 | 0.38 | 99 | 1005.8 |
| 20260510004148 | 51 | 65 | 0.0 | 0.0 | 0.00 | 0.38 | 0.38 | 99 | 1005.9 |
| 20260510003645 | 51 | 64 | 0.0 | 0.0 | 0.00 | 0.38 | 0.38 | 99 | 1005.6 |
| 20260510003140 | 51 | 64 | 0.0 | 0.0 | 0.00 | 0.38 | 0.38 | 99 | 1005.5 |
| 20260510002635 | 51 | 68 | 0.0 | 0.0 | 0.00 | 0.38 | 0.38 | 99 | 1005.6 |
| 20260510002132 | 51 | 62 | 0.0 | 0.0 | 0.00 | 0.38 | 0.38 | 99 | 1005.7 |
| 20260510001629 | 51 | 64 | 0.0 | 0.0 | 0.00 | 0.38 | 0.38 | 99 | 1005.7 |
| 20260510001128 | 51 | 69 | 0.0 | 0.0 | 0.00 | 0.38 | 0.38 | 99 | 1005.7 |
| 20260510000627 | 51 | 69 | 0.0 | 0.0 | 0.00 | 0.38 | 0.38 | 99 | 1005.8 |
| 20260510000126 | 51 | 69 | 0.0 | 0.0 | 0.00 | 0.38 | 0.38 | 99 | 1005.5 |
| 20260509235621 | 51 | 64 | 0.0 | 0.0 | 0.00 | 0.38 | 0.38 | 99 | 1005.6 |
| 20260509235118 | 51 | 108 | 0.9 | 0.9 | 0.00 | 0.38 | 0.38 | 99 | 1005.3 |
| 20260509234614 | 51 | 69 | 0.0 | 0.0 | 0.00 | 0.38 | 0.38 | 99 | 1005.1 |
| 20260509234112 | 52 | 62 | 0.0 | 0.0 | 0.00 | 0.38 | 0.38 | 99 | 1005.0 |
| 20260509233610 | 52 | 61 | 0.0 | 0.0 | 0.00 | 0.38 | 0.38 | 99 | 1005.2 |
| 20260509233107 | 52 | 63 | 0.0 | 0.0 | 0.00 | 0.38 | 0.38 | 99 | 1005.1 |
| 20260509232603 | 52 | 67 | 0.0 | 0.0 | 0.00 | 0.38 | 0.38 | 99 | 1005.0 |
| 20260509232100 | 52 | 67 | 0.0 | 0.0 | 0.00 | 0.38 | 0.38 | 99 | 1005.0 |
| 20260509231556 | 53 | 67 | 0.0 | 0.0 | 0.00 | 0.38 | 0.38 | 99 | 1005.0 |
| 20260509231054 | 52 | 67 | 0.0 | 0.0 | 0.00 | 0.38 | 0.38 | 99 | 1005.1 |
| 20260509230551 | 53 | 62 | 0.0 | 0.0 | 0.00 | 0.38 | 0.38 | 99 | 1004.8 |
| 20260509230048 | 53 | 89 | 0.0 | 0.0 | 0.00 | 0.38 | 0.38 | 99 | 1004.8 |
| 20260509225549 | 53 | 69 | 0.0 | 0.0 | 0.00 | 0.38 | 0.38 | 99 | 1004.9 |
| 20260509225044 | 53 | 63 | 0.9 | 0.9 | 0.00 | 0.38 | 0.38 | 99 | 1004.8 |
| 20260509224540 | 53 | 62 | 0.0 | 0.0 | 0.00 | 0.38 | 0.38 | 99 | 1004.8 |
| 20260509224037 | 53 | 37 | 0.9 | 0.9 | 0.00 | 0.38 | 0.38 | 99 | 1004.7 |
| 20260509223534 | 53 | 71 | 0.0 | 0.0 | 0.00 | 0.38 | 0.38 | 99 | 1004.7 |
| 20260509223032 | 53 | 58 | 0.0 | 0.0 | 0.00 | 0.38 | 0.38 | 99 | 1004.7 |
| 20260509222528 | 53 | 83 | 0.0 | 0.0 | 0.00 | 0.38 | 0.38 | 99 | 1004.7 |
| 20260509222023 | 53 | 84 | 0.9 | 0.9 | 0.00 | 0.38 | 0.38 | 99 | 1004.9 |
| 20260509221520 | 53 | 71 | 0.0 | 0.0 | 0.00 | 0.38 | 0.38 | 99 | 1005.0 |
| 20260509221016 | 53 | 65 | 0.0 | 0.0 | 0.00 | 0.38 | 0.38 | 99 | 1004.9 |
| 20260509220512 | 53 | 65 | 0.0 | 0.0 | 0.00 | 0.38 | 0.38 | 99 | 1005.1 |
| 20260509220008 | 52 | 58 | 0.0 | 0.9 | 0.00 | 0.38 | 0.38 | 99 | 1005.0 |
| 20260509215503 | 53 | 69 | 0.0 | 0.9 | 0.00 | 0.38 | 0.38 | 99 | 1005.1 |
| 20260509215001 | 52 | 63 | 0.0 | 0.0 | 0.00 | 0.38 | 0.38 | 99 | 1005.1 |
| 20260509214458 | 52 | 73 | 0.0 | 0.0 | 0.00 | 0.38 | 0.38 | 99 | 1005.2 |
| 20260509213955 | 52 | 79 | 0.0 | 0.0 | 0.00 | 0.38 | 0.38 | 99 | 1005.0 |
| 20260509213451 | 52 | 59 | 0.0 | 0.0 | 0.00 | 0.38 | 0.38 | 99 | 1005.3 |
| 20260509212948 | 52 | 73 | 0.0 | 0.0 | 0.00 | 0.38 | 0.38 | 99 | 1005.4 |
| 20260509212445 | 51 | 81 | 0.0 | 0.0 | 0.00 | 0.38 | 0.38 | 99 | 1005.3 |
| 20260509211942 | 51 | 67 | 0.0 | 0.0 | 0.00 | 0.38 | 0.38 | 99 | 1005.4 |
| 20260509211437 | 51 | 63 | 0.0 | 0.0 | 0.00 | 0.38 | 0.38 | 99 | 1005.4 |
| 20260509210934 | 51 | 64 | 0.0 | 0.0 | 0.00 | 0.38 | 0.38 | 99 | 1005.3 |
| 20260509210431 | 51 | 79 | 0.0 | 0.0 | 0.00 | 0.38 | 0.38 | 99 | 1005.3 |
| 20260509205926 | 51 | 74 | 0.0 | 0.0 | 0.00 | 0.38 | 0.38 | 99 | 1005.3 |
| 20260509205421 | 51 | 73 | 0.0 | 0.0 | 0.00 | 0.38 | 0.38 | 99 | 1005.4 |
| 20260509204917 | 50 | 70 | 0.0 | 0.0 | 0.00 | 0.38 | 0.38 | 99 | 1005.5 |
| 20260509204414 | 50 | 70 | 0.0 | 0.0 | 0.00 | 0.38 | 0.38 | 99 | 1005.5 |
| 20260509203910 | 50 | 62 | 0.0 | 0.0 | 0.00 | 0.38 | 0.38 | 99 | 1005.5 |
| 20260509203406 | 50 | 62 | 0.0 | 0.0 | 0.00 | 0.38 | 0.38 | 99 | 1005.4 |
| 20260509202904 | 50 | 83 | 0.0 | 0.0 | 0.00 | 0.38 | 0.38 | 99 | 1005.7 |
| 20260509202359 | 50 | 27 | 0.9 | 0.9 | 0.00 | 0.38 | 0.38 | 99 | 1005.9 |
| 20260509201855 | 50 | 79 | 0.0 | 0.9 | 0.00 | 0.38 | 0.38 | 99 | 1005.7 |
| 20260509201350 | 50 | 72 | 0.0 | 0.0 | 0.00 | 0.38 | 0.38 | 99 | 1005.9 |
| 20260509200848 | 49 | 106 | 1.7 | 2.6 | 0.00 | 0.38 | 0.38 | 99 | 1006.0 |
| 20260509200342 | 49 | 64 | 0.0 | 0.0 | 0.00 | 0.38 | 0.38 | 99 | 1005.9 |
| 20260509195839 | 49 | 82 | 0.9 | 1.7 | 0.00 | 0.38 | 0.38 | 99 | 1006.1 |
| 20260509195334 | 49 | 39 | 0.0 | 0.9 | 0.00 | 0.38 | 0.38 | 99 | 1006.1 |
| 20260509194833 | 49 | 71 | 0.0 | 0.0 | 0.00 | 0.38 | 0.38 | 99 | 1006.2 |
| 20260509194330 | 49 | 90 | 0.9 | 1.7 | 0.00 | 0.38 | 0.38 | 99 | 1006.2 |
| 20260509193827 | 49 | 73 | 0.0 | 0.0 | 0.00 | 0.38 | 0.38 | 99 | 1006.1 |
| 20260509193321 | 49 | 49 | 0.9 | 0.9 | 0.00 | 0.38 | 0.38 | 99 | 1006.4 |
| 20260509192817 | 48 | 61 | 0.0 | 0.0 | 0.05 | 0.38 | 0.38 | 99 | 1006.4 |
| 20260509192314 | 48 | 74 | 0.0 | 0.0 | 0.05 | 0.38 | 0.38 | 99 | 1006.6 |
| 20260509191809 | 48 | 68 | 0.0 | 0.0 | 0.00 | 0.37 | 0.37 | 99 | 1006.7 |
| 20260509191305 | 49 | 86 | 0.0 | 0.9 | 0.00 | 0.37 | 0.37 | 99 | 1006.6 |
| 20260509190801 | 48 | 86 | 0.9 | 0.9 | 0.00 | 0.37 | 0.37 | 99 | 1006.6 |
| 20260509190258 | 49 | 65 | 0.0 | 0.0 | 0.00 | 0.37 | 0.37 | 99 | 1006.9 |
| 20260509185755 | 49 | 73 | 0.0 | 0.9 | 0.00 | 0.37 | 0.37 | 99 | 1006.9 |
| 20260509185251 | 48 | 77 | 0.0 | 0.9 | 0.00 | 0.37 | 0.37 | 99 | 1006.7 |
| 20260509184749 | 48 | 58 | 0.0 | 0.9 | 0.00 | 0.37 | 0.37 | 99 | 1006.7 |
| 20260509184247 | 48 | 65 | 0.0 | 0.0 | 0.00 | 0.37 | 0.37 | 99 | 1006.9 |
| 20260509183743 | 48 | 86 | 0.9 | 1.7 | 0.00 | 0.37 | 0.37 | 99 | 1006.9 |
| 20260509183238 | 48 | 61 | 0.0 | 0.0 | 0.00 | 0.37 | 0.37 | 99 | 1006.5 |
| 20260509182734 | 48 | 36 | 0.9 | 1.7 | 0.00 | 0.37 | 0.37 | 99 | 1006.7 |
| 20260509182232 | 48 | 71 | 0.0 | 0.0 | 0.07 | 0.37 | 0.37 | 99 | 1006.5 |
| 20260509181729 | 48 | 57 | 0.0 | 0.0 | 0.07 | 0.37 | 0.37 | 99 | 1006.7 |
| 20260509181226 | 47 | 63 | 0.0 | 0.0 | 0.07 | 0.37 | 0.37 | 99 | 1006.5 |
| 20260509180723 | 47 | 80 | 0.0 | 0.0 | 0.00 | 0.36 | 0.36 | 99 | 1006.6 |
| 20260509180219 | 47 | 89 | 0.0 | 0.0 | 0.00 | 0.36 | 0.36 | 99 | 1006.9 |
| 20260509175716 | 47 | 73 | 0.9 | 0.9 | 0.00 | 0.36 | 0.36 | 99 | 1006.6 |
| 20260509175212 | 47 | 90 | 1.7 | 2.6 | 0.00 | 0.36 | 0.36 | 99 | 1006.9 |
| 20260509174708 | 47 | 72 | 0.0 | 0.0 | 0.00 | 0.36 | 0.36 | 99 | 1006.9 |
| 20260509174203 | 47 | 59 | 0.0 | 0.0 | 0.00 | 0.36 | 0.36 | 99 | 1006.9 |
| 20260509173700 | 47 | 77 | 0.9 | 0.9 | 0.00 | 0.36 | 0.36 | 99 | 1006.7 |
| 20260509173155 | 47 | 78 | 0.0 | 0.0 | 0.00 | 0.36 | 0.36 | 99 | 1007.1 |